Weather History for Philadelphia, PA

Change the Weather History Date:

Sunday, February 3, 2013

  Actual Average Record
Temperature  
Mean Temperature 30 °F 34 °F  
Max Temperature 33 °F 41 °F 62 °F (1991)
Min Temperature 26 °F 26 °F 4 °F (1881)
Degree Days  
Heating Degree Days 35 31  
Month to date heating degree days 113 94  
Since 1 July heating degree days 2490 2757  
Cooling Degree Days 0 0  
Month to date cooling degree days 0 0  
Year to date cooling degree days 0 0  
Moisture  
Dew Point 22 °F    
Average Humidity 72    
Maximum Humidity 92    
Minimum Humidity 51    
Precipitation  
Precipitation 0.01 in 0.09 in 1.64 in (1939)
Month to date precipitation 0.04 0.29  
Year to date precipitation 3.38 3.32  
Snow  
Snow 0.20 in 0.40 in 8.00 in (1886)
Month to date snowfall 0.8 1.1  
Since 1 July snowfall 5.1 11.3  
Snow Depth T in    
Sea Level Pressure  
Sea Level Pressure 29.92 in    
Wind  
Wind Speed 5 mph (WNW)    
Max Wind Speed 25 mph    
Max Gust Speed 36 mph    
Visibility 8 miles    
Events Snow    
T = Trace of Precipitation, MM = Missing Value Source: NWS Daily Summary

Daily Weather History Graph

Daily Weather History Graph

Search for Another Location

Airport:

Trip Planner

Search our weather history database for the weather conditions in past years. The results will help you decide how hot, cold, wet, or windy it might be!

Date:

Astronomy

Feb. 03, 2013 Rise Set
Actual Time 7:06 AM EST 5:23 PM EST
Civil Twilight 6:38 AM EST 5:51 PM EST
Nautical Twilight 6:06 AM EST 6:23 PM EST
Astronomical Twilight 5:34 AM EST 6:55 PM EST
Moon 12:31 AM EST (2/3) 10:58 AM EST (2/3)
Length of Visible Light 11h 12m
Length of Day
10h 16m
Waning Gibbous, 49% of the Moon is Illuminated
Feb 3
Waning Gibbous
Feb 10
New
Feb 17
First Quarter
Feb 25
Full
Mar 4
Last Quarter

Hourly Weather History & Observations

Time (EST) Temp. Windchill Dew Point Humidity Pressure Visibility Wind Dir Wind Speed Gust Speed Precip Events Conditions
12:04 AM 26.6 °F 21.2 °F 23.0 °F 86% 30.06 in 2.5 mi SSE 4.6 mph - 0.00 in Snow Light Snow
12:06 AM 26.6 °F 21.2 °F 23.0 °F 86% 30.06 in 2.5 mi SSE 4.6 mph - 0.00 in Snow Light Snow
1:03 AM 26.6 °F - 24.8 °F 93% 30.03 in 3.0 mi Calm Calm - 0.00 in Snow Light Snow
1:48 AM 26.6 °F - 23.0 °F 86% 30.01 in 5.0 mi Calm Calm - 0.00 in Snow Light Snow
1:54 AM 26.1 °F - 23.0 °F 88% 30.01 in 5.0 mi Calm Calm - 0.00 in Snow Light Snow
2:08 AM 26.6 °F - 24.8 °F 93% 30.00 in 7.0 mi Calm Calm - 0.00 in   Overcast
2:54 AM 27.0 °F - 24.1 °F 89% 29.99 in 9.0 mi Calm Calm - 0.00 in   Overcast
2:57 AM 26.6 °F - 24.8 °F 93% 29.99 in 9.0 mi Calm Calm - N/A   Overcast
3:19 AM 26.6 °F - 23.0 °F 86% 29.98 in 9.0 mi Calm Calm - N/A   Overcast
3:54 AM 27.0 °F - 24.1 °F 89% 29.96 in 7.0 mi Calm Calm - N/A   Overcast
4:54 AM 28.0 °F - 23.0 °F 81% 29.95 in 9.0 mi Calm Calm - N/A   Overcast
5:54 AM 28.0 °F 20.8 °F 23.0 °F 81% 29.95 in 9.0 mi NNE 6.9 mph - N/A   Overcast
6:20 AM 28.4 °F 21.2 °F 21.2 °F 74% 29.95 in 10.0 mi North 6.9 mph - N/A   Overcast
6:54 AM 27.0 °F 21.6 °F 21.0 °F 78% 29.95 in 10.0 mi NE 4.6 mph - N/A   Overcast
6:57 AM 28.4 °F 24.6 °F 21.2 °F 74% 29.95 in 10.0 mi NE 3.5 mph - N/A   Overcast
7:54 AM 27.0 °F 21.6 °F 19.9 °F 75% 29.96 in 10.0 mi NNE 4.6 mph - N/A   Overcast
8:54 AM 28.0 °F 21.7 °F 19.9 °F 72% 29.97 in 10.0 mi NE 5.8 mph - N/A   Overcast
9:54 AM 28.0 °F 20.8 °F 21.0 °F 75% 29.96 in 10.0 mi NE 6.9 mph - N/A   Overcast
10:54 AM 28.0 °F 24.2 °F 21.0 °F 75% 29.94 in 10.0 mi ENE 3.5 mph - N/A   Overcast
11:54 AM 28.9 °F - 21.0 °F 72% 29.91 in 10.0 mi Calm Calm - N/A   Overcast
12:42 PM 28.4 °F 23.3 °F 19.4 °F 69% 29.88 in 10.0 mi NNW 4.6 mph - N/A   Mostly Cloudy
12:54 PM 30.0 °F 24.1 °F 21.0 °F 69% 29.88 in 10.0 mi NNW 5.8 mph - N/A   Mostly Cloudy
1:54 PM 30.9 °F 26.2 °F 21.0 °F 67% 29.85 in 10.0 mi Variable 4.6 mph - N/A   Mostly Cloudy
2:54 PM 33.1 °F - 19.9 °F 59% 29.84 in 10.0 mi Calm Calm - N/A   Mostly Cloudy
3:54 PM 32.0 °F 27.5 °F 19.0 °F 59% 29.84 in 10.0 mi West 4.6 mph - N/A   Mostly Cloudy
4:54 PM 33.1 °F 26.1 °F 18.0 °F 54% 29.84 in 10.0 mi WNW 8.1 mph - N/A   Mostly Cloudy
5:54 PM 30.0 °F 22.4 °F 19.0 °F 64% 29.84 in 10.0 mi WSW 8.1 mph - N/A   Mostly Cloudy
6:54 PM 32.0 °F 25.6 °F 18.0 °F 56% 29.85 in 10.0 mi West 6.9 mph - N/A   Mostly Cloudy
7:54 PM 28.9 °F 21.1 °F 19.0 °F 67% 29.86 in 10.0 mi West 8.1 mph - N/A   Scattered Clouds
8:54 PM 30.0 °F 24.1 °F 21.9 °F 72% 29.86 in 10.0 mi West 5.8 mph - N/A   Mostly Cloudy
9:38 PM 30.2 °F 21.9 °F 23.0 °F 75% 29.86 in 7.0 mi SW 9.2 mph - 0.00 in Snow Light Snow
9:54 PM 30.9 °F 22.8 °F 24.1 °F 76% 29.86 in 9.0 mi SW 9.2 mph - 0.00 in   Overcast
10:16 PM 30.2 °F 21.3 °F 24.8 °F 80% 29.86 in 6.0 mi WSW 10.4 mph - 0.00 in Snow Light Snow
10:17 PM 30.2 °F 21.9 °F 24.8 °F 80% 29.86 in 6.0 mi WSW 9.2 mph - 0.00 in Snow Light Snow
10:46 PM 30.2 °F 20.8 °F 26.6 °F 86% 29.86 in 6.0 mi WSW 11.5 mph - 0.00 in Snow Light Snow
10:54 PM 30.9 °F 21.7 °F 27.0 °F 85% 29.86 in 6.0 mi WSW 11.5 mph - 0.00 in Snow Light Snow
11:24 PM 30.2 °F 21.3 °F 26.6 °F 86% 29.88 in 2.5 mi WNW 10.4 mph - 0.00 in Snow Light Snow
11:28 PM 30.2 °F 20.2 °F 26.6 °F 86% 29.89 in 1.5 mi WNW 12.7 mph - 0.00 in Snow Snow
11:34 PM 30.2 °F 20.2 °F 26.6 °F 86% 29.89 in 3.0 mi WNW 12.7 mph - 0.00 in Snow Light Snow
11:36 PM 30.2 °F 20.2 °F 26.6 °F 86% 29.89 in 5.0 mi NW 12.7 mph - 0.00 in Snow Light Snow
11:39 PM 30.2 °F 20.2 °F 24.8 °F 80% 29.89 in 7.0 mi WNW 12.7 mph 20.7 mph 0.00 in Snow Light Snow
11:54 PM 30.0 °F 17.5 °F 15.1 °F 54% 29.90 in 9.0 mi WNW 19.6 mph 35.7 mph 0.00 in   Scattered Clouds